COSMOS 2251 DEB, 34050

Orbit data source: Space-Track

COSMOS 2251 DEB, 34050 is space debris in LEO originally from a launch on Wed, 16 Jun 1993 UTC launched from the Plesetsk Missile And Space Complex (PKMTR). The debris from Iridium 33, an American commercial communications satellite, has been tracked extensively since its accidental collision with the defunct Russian satellite Cosmos 2251 in 2009. This event, occurring at high speed in low Earth orbit (LEO), generated thousands of pieces of space debris, significantly increasing the risk of further collisions. The Iridium 33 debris cloud has impacted space traffic management and orbital debris mitigation strategies, making it a subject of ongoing study in space situational awareness.

Loading next visibility...
Identifier
34050, 1993-036JM
Orbit
LEO
Country
Flag of CISCIS
Related business
Manufacturer
Unknown
Mission
Spacecraft
Bus & Motor
Unknown
Mass
Unknown
Launch date (UTC)
1993-06-16 (32 years ago)
Launch vehicle
Unknown
Launch site
Plesetsk Missile And Space Complex (PKMTR)
Object type
Payload
Rocket body
Debris
Shape & HBR
Unknown shape, 0.1 m
Radar Cross Section
Small (<0.1 m²)

Expand to show TLE details & history
Last TLE update: 9 hours ago

TLE from 9 hours ago
0 COSMOS 2251 DEB
1 34050U 93036JM  25299.85087003  .00002724  00000-0  16446-2 0  9999
2 34050  74.0867  90.4710 0216895 166.4741 344.8564 13.96009793847771
Epoch: 2025-10-26T20:25Z
TLE epoch observation values (Epoch: 2025-10-26T20:25:15.170Z)
Latitude
28.16081°
Longitude
-80.03485°
Altitude
758.446 km
Speed
7.556 km/s
True Right ascension
17h 26m 57s
True Declination
28° 01' 05"
Sunlit
Object was in daylight at epoch
Visualization orbit readout
Latitude
Unknown
Longitude
Unknown
Altitude
Unknown
Speed
Unknown
Apparent Right ascension
Unknown
Apparent Declination
Unknown
Sunlit
N/A
Visualization observer readout
Local Sidereal Time
00:49:25
Azimuth
Unknown
Elevation
Unknown
Doppler factor
Unknown
Orbital elements
Apogee altitude
1,063.282 km
Perigee altitude
747.334 km
Semi-major axis
7,283.445 km
Eccentricity
0.02169
Inclination
74.0867°
RAAN
90.471°
Arg. of periapsis
166.4741°
True anomaly
344.18969°
Mean anomaly
344.8564°
Eccentric anomaly
344.52482°
Mean motion
3.49171 °/min
Orbital period
103.1 mins
BSTAR
0.0016446
Loading maneuver chart data...
Computing Atmospheric mass density...

Documentation

Showing up to 5 results
|